Flag for Germany Weather past 2 weeks in Ettlingen, Baden-Württemberg, Germany

54 °F

Scattered showers. Partly sunny.

Feels Like: 49 °F
Forecast: 49 / 54 °F
Wind: 17 mph from Southwest

Location: Karlsruhe - Baden Wurttemberg

Current Time: Nov 30, 2015 at 3:24:58 PM

Latest Report: Nov 30, 2015 at 2:50 PM

Visibility: N/A

Pressure: 30.21 "Hg

Humidity: 67%

Dew point: 43 °F

Location of EttlingenLocation

Historic Weather in Ettlingen — Graph


Ettlingen temperature yesterday

Maximum temperature yesterday: 52 °F (at 9:20 PM)
Minimum temperature yesterday: 39 °F (at 12:20 AM)
Average temperature yesterday: 46 °F

Past Weeks' High & Low Weather Summary

High63 °F (Nov 18, 5:20 AM)100% (Nov 20, 8:20 AM)30.33 "Hg (Nov 20, 8:20 AM)
Low23 °F (Nov 24, 6:20 AM)44% (Nov 16, 10:50 AM)29.42 "Hg (Nov 21, 11:50 AM)
Average45 °F80%29.99 "Hg
* Reported Nov 15 1:20 PM — Nov 30 1:50 PM, Ettlingen, Weather by CustomWeather, © 2015

Note: Actual official high and low records may vary slightly from our data, if they occured in-between our weather recording intervals... More about our weather records


Ettlingen weather history for previous 24 hours

Time TempWeatherWind HumidityBarometerVisibility
1:50 PM
Mon, Nov 30
54 °FSprinkles. Partly sunny.16 mph67%30.24 "HgN/A
1:20 PM54 °FPartly sunny.20 mph67%30.24 "HgN/A
12:50 PM54 °FPartly sunny.18 mph72%30.24 "HgN/A
12:20 PM54 °FPartly sunny.21 mph67%30.24 "HgN/A
11:50 AM52 °FPartly sunny.17 mph72%30.24 "HgN/A
11:20 AM50 °FLight rain. Partly sunny.15 mph82%30.27 "HgN/A
10:50 AM50 °FRain. Partly sunny.15 mph82%30.27 "Hg5 mi
10:20 AM50 °FRain. Partly sunny.15 mph82%30.27 "Hg5 mi
9:50 AM48 °FLight rain. Partly sunny.17 mph87%30.27 "HgN/A
9:20 AM48 °FRain. Partly sunny.17 mph87%30.27 "Hg4 mi
8:50 AM48 °FLight rain. Partly sunny.17 mph87%30.27 "HgN/A
7:50 AM52 °FRain. Passing clouds.16 mph72%30.24 "Hg5 mi
7:20 AM52 °FLight rain. Passing clouds.18 mph72%30.21 "HgN/A
6:50 AM54 °FLight rain. Passing clouds.17 mph63%30.21 "HgN/A
6:20 AM52 °FPassing clouds.21 mph67%30.18 "HgN/A
5:50 AM54 °FPassing clouds.20 mph63%30.21 "HgN/A
5:20 AM54 °FPassing clouds.20 mph63%30.18 "HgN/A
4:50 AM54 °FPassing clouds.22 mph63%30.18 "HgN/A
1:20 AM52 °FPassing clouds.21 mph72%30.15 "HgN/A
12:20 AM54 °FPassing clouds.20 mph63%30.15 "HgN/A
11:20 PM
Sun, Nov 29
52 °FPassing clouds.20 mph72%30.15 "HgN/A
10:50 PM52 °FPassing clouds.20 mph67%30.15 "HgN/A
10:20 PM52 °FPassing clouds.22 mph67%30.12 "HgN/A
9:50 PM52 °FPassing clouds.22 mph67%30.12 "HgN/A
9:20 PM52 °FPassing clouds.21 mph72%30.15 "HgN/A
8:50 PM50 °FPassing clouds.23 mph76%30.12 "HgN/A
8:20 PM50 °FPassing clouds.23 mph76%30.12 "HgN/A
7:50 PM50 °FPassing clouds.24 mph76%30.12 "HgN/A
7:20 PM48 °FPassing clouds.26 mph82%30.12 "HgN/A
6:50 PM48 °FPassing clouds.24 mph82%30.12 "HgN/A
6:20 PM48 °FLight rain. Passing clouds.25 mph82%30.12 "HgN/A
5:50 PM48 °FLight rain. Passing clouds.24 mph82%30.09 "HgN/A
5:20 PM48 °FPassing clouds.26 mph82%30.09 "HgN/A
4:50 PM48 °FLight rain. Passing clouds.23 mph82%30.09 "HgN/A
4:20 PM48 °FLight rain. Partly sunny.23 mph82%30.09 "HgN/A
3:50 PM46 °FLight rain. Partly sunny.22 mph87%30.09 "HgN/A
3:20 PM46 °FLight rain. Partly sunny.23 mph87%30.09 "HgN/A
Weather by CustomWeather, © 2015

See weather overviewHow to use our weather pages